AAL2675 KLAX-KBOS

Flight info

Callsign AAL2675
Flight time 4h 41m
Altitude 35000
Route DOTSS2 CLEEE PKE J96 CIM SLN IRK JOT J146 GIJ J554 JHW Q82 PONCT JFUND2
Aircraft A321/M-SDE3FGHIRWY/LB1

Departure

Time 2026-05-06 19:41
Airport Los Angeles International Airport (KLAX)

Arrival

Time 2026-05-07 00:22
Airport Boston Logan International Airport (KBOS)
Time Latitude Longitude Altitude Speed Heading
2026-05-06 18:41 33.94000 -118.40602 126 ft 0 kts 294°
2026-05-06 19:25 33.94000 -118.40601 126 ft 0 kts 294°
2026-05-06 19:31 33.93997 -118.40595 126 ft 4 kts 291°
2026-05-06 19:31 33.93992 -118.40566 126 ft 4 kts 253°
2026-05-06 19:31 33.94007 -118.40548 126 ft 1 kts 173°
2026-05-06 19:34 33.93993 -118.40546 122 ft 7 kts 173°
2026-05-06 19:34 33.93934 -118.40538 122 ft 9 kts 173°
2026-05-06 19:34 33.93890 -118.40532 121 ft 10 kts 173°
2026-05-06 19:34 33.93831 -118.40476 122 ft 10 kts 85°
2026-05-06 19:35 33.93838 -118.40390 126 ft 11 kts 83°
2026-05-06 19:35 33.93849 -118.40279 126 ft 14 kts 82°
2026-05-06 19:35 33.93863 -118.40153 126 ft 16 kts 82°
2026-05-06 19:35 33.93878 -118.40017 126 ft 17 kts 82°
2026-05-06 19:36 33.93888 -118.39921 124 ft 18 kts 83°
2026-05-06 19:36 33.93903 -118.39768 126 ft 19 kts 83°
2026-05-06 19:36 33.93926 -118.39550 121 ft 21 kts 83°
2026-05-06 19:36 33.93944 -118.39367 126 ft 23 kts 83°
2026-05-06 19:37 33.93963 -118.39176 123 ft 23 kts 83°
2026-05-06 19:37 33.93976 -118.39045 126 ft 23 kts 83°
2026-05-06 19:37 33.93996 -118.38850 122 ft 24 kts 83°
2026-05-06 19:37 33.94016 -118.38659 125 ft 22 kts 82°
2026-05-06 19:38 33.94036 -118.38474 122 ft 22 kts 83°
2026-05-06 19:38 33.94054 -118.38291 123 ft 21 kts 83°
2026-05-06 19:38 33.94070 -118.38128 124 ft 16 kts 83°
2026-05-06 19:38 33.94078 -118.38059 125 ft 2 kts 83°
2026-05-06 19:39 33.94078 -118.38045 125 ft 2 kts 91°
2026-05-06 19:39 33.94068 -118.38018 122 ft 5 kts 126°
2026-05-06 19:39 33.94022 -118.37997 121 ft 11 kts 173°
2026-05-06 19:39 33.93981 -118.38055 125 ft 7 kts 261°
2026-05-06 19:40 33.93979 -118.38069 125 ft 7 kts 261°
2026-05-06 19:40 33.93940 -118.38431 126 ft 78 kts 263°
2026-05-06 19:40 33.93847 -118.39333 126 ft 137 kts 263°
2026-05-06 19:40 33.93711 -118.40649 218 ft 171 kts 263°
2026-05-06 19:41 33.93573 -118.42012 987 ft 160 kts 262°
2026-05-06 19:41 33.93439 -118.43351 1637 ft 162 kts 262°
2026-05-06 19:41 33.93301 -118.44736 2136 ft 175 kts 262°
2026-05-06 19:41 33.92900 -118.46198 2316 ft 196 kts 241°
2026-05-06 19:42 33.92041 -118.47581 2435 ft 218 kts 232°
2026-05-06 19:42 33.91045 -118.49089 2603 ft 242 kts 232°
2026-05-06 19:42 33.89946 -118.50715 3029 ft 256 kts 231°
2026-05-06 19:42 33.88803 -118.52352 3680 ft 260 kts 230°
2026-05-06 19:43 33.87598 -118.53998 4336 ft 265 kts 223°
2026-05-06 19:43 33.86048 -118.55230 4988 ft 271 kts 202°
2026-05-06 19:43 33.84209 -118.55749 5650 ft 275 kts 182°
2026-05-06 19:43 33.82302 -118.55490 6308 ft 279 kts 167°
2026-05-06 19:44 33.80400 -118.54965 6971 ft 282 kts 167°
2026-05-06 19:44 33.78475 -118.54437 7629 ft 286 kts 167°
2026-05-06 19:44 33.76524 -118.53908 8271 ft 289 kts 167°
2026-05-06 19:44 33.74552 -118.53378 8914 ft 292 kts 167°
2026-05-06 19:45 33.72573 -118.52761 9504 ft 296 kts 158°
2026-05-06 19:45 33.70774 -118.51566 10085 ft 298 kts 140°
2026-05-06 19:45 33.69352 -118.49814 10673 ft 298 kts 123°
2026-05-06 19:45 33.68358 -118.47574 10874 ft 313 kts 107°
2026-05-06 19:46 33.67618 -118.45027 11010 ft 334 kts 107°
2026-05-06 19:46 33.66837 -118.42332 11320 ft 347 kts 107°
2026-05-06 19:46 33.66032 -118.39582 11904 ft 350 kts 107°
2026-05-06 19:46 33.65215 -118.36817 12523 ft 353 kts 106°
2026-05-06 19:47 33.64603 -118.33967 13130 ft 352 kts 95°
2026-05-06 19:47 33.64456 -118.31049 13732 ft 351 kts 86°
2026-05-06 19:47 33.64467 -118.28109 14335 ft 353 kts 86°
2026-05-06 19:47 33.64473 -118.25199 14927 ft 354 kts 86°
2026-05-06 19:48 33.64474 -118.22237 15494 ft 356 kts 86°
2026-05-06 19:48 33.64474 -118.19251 16058 ft 359 kts 86°
2026-05-06 19:48 33.64472 -118.16255 16625 ft 360 kts 86°
2026-05-06 19:48 33.64468 -118.13242 17185 ft 362 kts 86°
2026-05-06 19:49 33.64465 -118.10219 17724 ft 364 kts 86°
2026-05-06 19:49 33.64465 -118.07172 18251 ft 366 kts 86°
2026-05-06 19:49 33.64466 -118.04110 18772 ft 368 kts 86°
2026-05-06 19:49 33.64466 -118.01036 19261 ft 370 kts 86°
2026-05-06 19:50 33.64462 -117.97973 19711 ft 373 kts 86°
2026-05-06 19:50 33.64454 -117.94801 20184 ft 377 kts 86°
2026-05-06 19:50 33.64446 -117.91691 20646 ft 379 kts 86°
2026-05-06 19:50 33.64436 -117.88518 21105 ft 382 kts 86°
2026-05-06 19:51 33.64427 -117.85320 21547 ft 385 kts 86°
2026-05-06 19:51 33.64418 -117.82100 21975 ft 387 kts 86°
2026-05-06 19:51 33.64581 -117.78878 22378 ft 387 kts 78°
2026-05-06 19:51 33.65142 -117.75720 22773 ft 388 kts 73°
2026-05-06 19:52 33.65760 -117.72560 23172 ft 390 kts 74°
2026-05-06 19:52 33.66375 -117.69386 23553 ft 392 kts 74°
2026-05-06 19:52 33.66982 -117.66233 23917 ft 394 kts 74°
2026-05-06 19:52 33.67598 -117.63017 24266 ft 396 kts 74°
2026-05-06 19:53 33.68215 -117.59784 24627 ft 399 kts 74°
2026-05-06 19:53 33.68835 -117.56536 24997 ft 400 kts 74°
2026-05-06 19:53 33.69462 -117.53279 25353 ft 401 kts 74°
2026-05-06 19:53 33.70089 -117.50010 25696 ft 402 kts 74°
2026-05-06 19:54 33.70716 -117.46728 26023 ft 404 kts 74°
2026-05-06 19:54 33.71343 -117.43429 26376 ft 406 kts 74°
2026-05-06 19:54 33.71970 -117.40115 26732 ft 407 kts 74°
2026-05-06 19:54 33.72591 -117.36838 27064 ft 409 kts 74°
2026-05-06 19:55 33.73224 -117.33507 27362 ft 410 kts 74°
2026-05-06 19:55 33.73860 -117.30157 27689 ft 411 kts 74°
2026-05-06 19:55 33.74496 -117.26804 28000 ft 413 kts 74°
2026-05-06 19:55 33.75010 -117.23402 28285 ft 417 kts 81°
2026-05-06 19:56 33.75079 -117.19896 28562 ft 423 kts 87°
2026-05-06 19:56 33.75000 -117.16365 28837 ft 424 kts 87°
2026-05-06 19:56 33.74925 -117.12817 29115 ft 425 kts 87°
2026-05-06 19:56 33.74853 -117.09267 29389 ft 425 kts 87°
2026-05-06 19:57 33.74783 -117.05759 29667 ft 426 kts 87°
2026-05-06 19:57 33.74711 -117.02196 29929 ft 428 kts 87°
2026-05-06 19:57 33.74635 -116.98610 30198 ft 429 kts 87°
2026-05-06 19:57 33.74556 -116.95020 30452 ft 431 kts 87°
2026-05-06 19:58 33.74477 -116.91426 30794 ft 430 kts 87°
2026-05-06 19:58 33.74399 -116.87845 31137 ft 429 kts 87°
2026-05-06 19:58 33.74319 -116.84269 31471 ft 428 kts 87°
2026-05-06 19:58 33.74237 -116.80694 31799 ft 427 kts 87°
2026-05-06 19:59 33.74155 -116.77131 32124 ft 427 kts 87°
2026-05-06 19:59 33.74071 -116.73617 32417 ft 426 kts 87°
2026-05-06 19:59 33.73988 -116.70062 32711 ft 426 kts 87°
2026-05-06 19:59 33.73905 -116.66505 32997 ft 425 kts 88°
2026-05-06 20:00 33.73820 -116.62957 33251 ft 426 kts 88°
2026-05-06 20:00 33.73733 -116.59400 33551 ft 426 kts 88°
2026-05-06 20:00 33.73644 -116.55848 33846 ft 425 kts 87°
2026-05-06 20:00 33.73554 -116.52303 34135 ft 424 kts 88°
2026-05-06 20:01 33.73466 -116.48765 34393 ft 424 kts 88°
2026-05-06 20:01 33.73378 -116.45262 34619 ft 425 kts 88°
2026-05-06 20:01 33.73287 -116.41708 34822 ft 426 kts 88°
2026-05-06 20:01 33.73194 -116.38143 35010 ft 428 kts 88°
2026-05-06 20:02 33.72998 -116.31001 35073 ft 428 kts 88°
2026-05-06 20:02 33.72803 -116.23866 35059 ft 428 kts 88°
2026-05-06 20:03 33.72604 -116.16733 35064 ft 427 kts 88°
2026-05-06 20:03 33.72457 -116.09663 35053 ft 424 kts 83°
2026-05-06 20:04 33.73600 -116.02802 35057 ft 417 kts 69°
2026-05-06 20:04 33.75449 -115.96182 35059 ft 418 kts 69°
2026-05-06 20:05 33.77288 -115.89541 35059 ft 419 kts 69°
2026-05-06 20:05 33.79118 -115.82932 35074 ft 419 kts 69°
2026-05-06 20:06 33.80961 -115.76268 35076 ft 420 kts 69°
2026-05-06 20:06 33.82798 -115.69587 35074 ft 421 kts 69°
2026-05-06 20:07 33.84645 -115.62893 35083 ft 422 kts 69°
2026-05-06 20:07 33.86494 -115.56177 35089 ft 424 kts 70°
2026-05-06 20:08 33.88326 -115.49477 35086 ft 424 kts 70°
2026-05-06 20:08 33.90166 -115.42714 35080 ft 426 kts 70°
2026-05-06 20:09 33.92009 -115.35924 35080 ft 428 kts 70°
2026-05-06 20:09 33.93864 -115.29102 35080 ft 430 kts 70°
2026-05-06 20:10 33.95731 -115.22249 35071 ft 432 kts 70°
2026-05-06 20:10 33.97580 -115.15405 35067 ft 434 kts 70°
2026-05-06 20:11 33.99446 -115.08465 35058 ft 436 kts 70°
2026-05-06 20:11 34.01321 -115.01494 35062 ft 437 kts 70°
2026-05-06 20:12 34.03185 -114.94542 35078 ft 435 kts 69°
2026-05-06 20:12 34.05025 -114.87665 35082 ft 433 kts 70°
2026-05-06 20:13 34.06872 -114.80747 35078 ft 434 kts 70°
2026-05-06 20:13 34.08717 -114.73817 35070 ft 434 kts 70°
2026-05-06 20:14 34.10561 -114.66875 35063 ft 435 kts 69°
2026-05-06 20:14 34.12478 -114.59991 35058 ft 436 kts 69°
2026-05-06 20:15 34.14473 -114.53063 35047 ft 437 kts 69°
2026-05-06 20:15 34.16459 -114.46113 35041 ft 439 kts 69°
2026-05-06 20:16 34.18428 -114.39125 35035 ft 440 kts 69°
2026-05-06 20:16 34.20384 -114.32097 35034 ft 442 kts 69°
2026-05-06 20:17 34.22332 -114.25103 35034 ft 442 kts 69°
2026-05-06 20:17 34.24306 -114.18053 35038 ft 443 kts 69°
2026-05-06 20:18 34.26278 -114.10980 35043 ft 445 kts 69°
2026-05-06 20:18 34.28248 -114.03878 35052 ft 446 kts 69°
2026-05-06 20:19 34.30200 -113.96812 35055 ft 446 kts 70°
2026-05-06 20:19 34.32162 -113.89691 35048 ft 447 kts 70°
2026-05-06 20:20 34.34137 -113.82551 35056 ft 448 kts 69°
2026-05-06 20:20 34.36106 -113.75396 35069 ft 448 kts 70°
2026-05-06 20:21 34.38069 -113.68242 35076 ft 448 kts 70°
2026-05-06 20:21 34.40014 -113.61136 35074 ft 448 kts 70°
2026-05-06 20:22 34.41969 -113.53970 35078 ft 448 kts 70°
2026-05-06 20:22 34.43921 -113.46798 35081 ft 449 kts 70°
2026-05-06 20:23 34.45863 -113.39610 35095 ft 449 kts 70°
2026-05-06 20:23 34.47792 -113.32472 35107 ft 449 kts 70°
2026-05-06 20:24 34.49736 -113.25266 35116 ft 450 kts 70°
2026-05-06 20:24 34.51675 -113.18051 35117 ft 450 kts 70°
2026-05-06 20:25 34.53617 -113.10827 35122 ft 451 kts 70°
2026-05-06 20:25 34.55540 -113.03628 35123 ft 452 kts 70°
2026-05-06 20:26 34.57484 -112.96363 35124 ft 453 kts 70°
2026-05-06 20:26 34.59432 -112.89075 35125 ft 455 kts 70°
2026-05-06 20:27 34.61373 -112.81765 35125 ft 456 kts 71°
2026-05-06 20:27 34.63315 -112.74432 35125 ft 457 kts 71°
2026-05-06 20:28 34.65247 -112.67120 35130 ft 459 kts 71°
2026-05-06 20:28 34.67195 -112.59729 35140 ft 460 kts 71°
2026-05-06 20:29 34.69141 -112.52308 35135 ft 462 kts 71°
2026-05-06 20:29 34.71061 -112.44844 35141 ft 463 kts 72°
2026-05-06 20:30 34.73650 -112.33564 35139 ft 465 kts 74°
2026-05-06 20:31 34.75340 -112.25974 35139 ft 465 kts 73°
2026-05-06 20:31 34.77062 -112.18375 35129 ft 466 kts 73°
2026-05-06 20:32 34.78807 -112.10779 35120 ft 466 kts 73°
2026-05-06 20:32 34.80537 -112.03226 35108 ft 467 kts 73°
2026-05-06 20:33 34.82267 -111.95616 35094 ft 467 kts 74°
2026-05-06 20:33 34.83993 -111.87980 35075 ft 470 kts 74°
2026-05-06 20:34 34.85726 -111.80279 35098 ft 474 kts 74°
2026-05-06 20:34 34.87456 -111.72564 35107 ft 476 kts 74°
2026-05-06 20:35 34.89199 -111.64784 35117 ft 477 kts 74°
2026-05-06 20:35 34.90938 -111.56991 35126 ft 477 kts 74°
2026-05-06 20:36 34.92674 -111.49173 35139 ft 478 kts 74°
2026-05-06 20:36 34.94405 -111.41352 35150 ft 478 kts 74°
2026-05-06 20:37 34.96121 -111.33567 35150 ft 479 kts 74°
2026-05-06 20:37 34.97846 -111.25725 35148 ft 479 kts 74°
2026-05-06 20:38 34.99579 -111.17871 35142 ft 480 kts 74°
2026-05-06 20:38 35.01306 -111.10000 35138 ft 481 kts 74°
2026-05-06 20:39 35.03011 -111.02160 35131 ft 482 kts 75°
2026-05-06 20:39 35.04725 -110.94241 35121 ft 484 kts 75°
2026-05-06 20:40 35.06444 -110.86289 35118 ft 485 kts 75°
2026-05-06 20:40 35.08160 -110.78323 35108 ft 486 kts 75°
2026-05-06 20:41 35.09871 -110.70391 35106 ft 487 kts 75°
2026-05-06 20:41 35.11588 -110.62388 35099 ft 487 kts 75°
2026-05-06 20:42 35.13290 -110.54381 35101 ft 487 kts 75°
2026-05-06 20:42 35.14995 -110.46363 35105 ft 488 kts 75°
2026-05-06 20:43 35.16693 -110.38381 35107 ft 488 kts 75°
2026-05-06 20:43 35.18393 -110.30341 35114 ft 489 kts 75°
2026-05-06 20:44 35.20085 -110.22293 35126 ft 489 kts 75°
2026-05-06 20:44 35.21773 -110.14229 35135 ft 490 kts 75°
2026-05-06 20:45 35.23444 -110.06227 35136 ft 488 kts 75°
2026-05-06 20:45 35.25120 -109.98174 35138 ft 488 kts 75°
2026-05-06 20:46 35.26796 -109.90115 35095 ft 490 kts 76°
2026-05-06 20:46 35.28470 -109.82003 35099 ft 493 kts 75°
2026-05-06 20:47 35.30137 -109.73914 35105 ft 494 kts 75°
2026-05-06 20:47 35.31818 -109.65742 35109 ft 495 kts 76°
2026-05-06 20:48 35.33489 -109.57559 35115 ft 496 kts 76°
2026-05-06 20:48 35.35157 -109.49367 35113 ft 497 kts 76°
2026-05-06 20:49 35.36817 -109.41193 35114 ft 498 kts 76°
2026-05-06 20:49 35.38486 -109.32949 35114 ft 499 kts 76°
2026-05-06 20:50 35.40151 -109.24678 35112 ft 500 kts 76°
2026-05-06 20:50 35.41811 -109.16383 35110 ft 502 kts 76°
2026-05-06 20:51 35.43462 -109.08119 35111 ft 503 kts 76°
2026-05-06 20:51 35.45132 -108.99771 35110 ft 505 kts 76°
2026-05-06 20:52 35.46794 -108.91390 35110 ft 506 kts 77°
2026-05-06 20:52 35.48548 -108.83023 35107 ft 507 kts 73°
2026-05-06 20:53 35.50797 -108.74809 35105 ft 508 kts 69°
2026-05-06 20:53 35.53204 -108.66715 35111 ft 508 kts 70°
2026-05-06 20:54 35.55516 -108.58504 35119 ft 509 kts 71°
2026-05-06 20:54 35.57709 -108.50246 35122 ft 509 kts 72°
2026-05-06 20:55 35.59896 -108.41968 35128 ft 509 kts 71°
2026-05-06 20:55 35.62095 -108.33757 35135 ft 509 kts 71°
2026-05-06 20:56 35.64327 -108.25498 35135 ft 509 kts 71°
2026-05-06 20:56 35.66542 -108.17242 35143 ft 508 kts 71°
2026-05-06 20:57 35.68734 -108.08999 35143 ft 506 kts 71°
2026-05-06 20:57 35.70899 -108.00816 35142 ft 506 kts 71°
2026-05-06 20:58 35.73070 -107.92597 35138 ft 505 kts 71°
2026-05-06 20:58 35.75246 -107.84373 35125 ft 505 kts 71°
2026-05-06 20:59 35.77413 -107.76151 35116 ft 505 kts 71°
2026-05-06 20:59 35.79559 -107.67967 35109 ft 506 kts 72°
2026-05-06 21:00 35.81717 -107.59712 35099 ft 507 kts 72°
2026-05-06 21:00 35.83872 -107.51433 35073 ft 508 kts 72°
2026-05-06 21:01 35.86025 -107.43127 35071 ft 510 kts 72°
2026-05-06 21:01 35.88173 -107.34844 35064 ft 512 kts 72°
2026-05-06 21:02 35.90338 -107.26462 35061 ft 514 kts 72°
2026-05-06 21:02 35.92504 -107.18036 35063 ft 516 kts 72°
2026-05-06 21:03 35.94676 -107.09570 35057 ft 519 kts 72°
2026-05-06 21:03 35.96846 -107.01054 35048 ft 522 kts 73°
2026-05-06 21:04 35.99012 -106.92549 35054 ft 524 kts 73°
2026-05-06 21:04 36.01200 -106.83941 35060 ft 527 kts 72°
2026-05-06 21:05 36.03383 -106.75320 35099 ft 525 kts 72°
2026-05-06 21:05 36.05551 -106.66717 35089 ft 524 kts 73°
2026-05-06 21:06 36.07695 -106.58165 35082 ft 525 kts 73°
2026-05-06 21:06 36.09860 -106.49537 35069 ft 526 kts 73°
2026-05-06 21:07 36.12025 -106.40885 35063 ft 528 kts 73°
2026-05-06 21:07 36.14193 -106.32198 35060 ft 529 kts 73°
2026-05-06 21:08 36.16337 -106.23541 35055 ft 530 kts 73°
2026-05-06 21:08 36.18491 -106.14797 35054 ft 532 kts 73°
2026-05-06 21:09 36.20651 -106.06030 35055 ft 533 kts 73°
2026-05-06 21:09 36.22797 -105.97243 35058 ft 534 kts 74°
2026-05-06 21:10 36.24936 -105.88495 35062 ft 535 kts 74°
2026-05-06 21:10 36.27088 -105.79669 35070 ft 536 kts 74°
2026-05-06 21:11 36.29235 -105.70827 35084 ft 536 kts 74°
2026-05-06 21:11 36.31372 -105.61974 35098 ft 536 kts 73°
2026-05-06 21:12 36.33506 -105.53133 35101 ft 535 kts 74°
2026-05-06 21:12 36.35607 -105.44355 35103 ft 534 kts 74°
2026-05-06 21:13 36.37717 -105.35515 35100 ft 534 kts 74°
2026-05-06 21:13 36.39828 -105.26675 35092 ft 534 kts 74°
2026-05-06 21:14 36.41933 -105.17825 35081 ft 535 kts 74°
2026-05-06 21:14 36.44016 -105.09029 35073 ft 535 kts 74°
2026-05-06 21:15 36.46105 -105.00155 35066 ft 535 kts 75°
2026-05-06 21:15 36.48194 -104.91255 35067 ft 538 kts 74°
2026-05-06 21:16 36.50885 -104.82590 35074 ft 539 kts 63°
2026-05-06 21:16 36.54068 -104.74205 35075 ft 541 kts 64°
2026-05-06 21:17 36.57257 -104.65717 35081 ft 543 kts 64°
2026-05-06 21:17 36.60448 -104.57183 35093 ft 545 kts 64°
2026-05-06 21:18 36.63642 -104.48620 35095 ft 546 kts 64°
2026-05-06 21:18 36.66822 -104.40079 35102 ft 548 kts 64°
2026-05-06 21:19 36.70038 -104.31459 35104 ft 549 kts 64°
2026-05-06 21:19 36.73255 -104.22810 35113 ft 550 kts 64°
2026-05-06 21:20 36.76449 -104.14137 35118 ft 550 kts 65°
2026-05-06 21:20 36.79641 -104.05462 35132 ft 550 kts 65°
2026-05-06 21:21 36.82807 -103.96842 35144 ft 550 kts 65°
2026-05-06 21:21 36.86001 -103.88139 35128 ft 552 kts 65°
2026-05-06 21:22 36.89203 -103.79399 35137 ft 554 kts 65°
2026-05-06 21:22 36.92371 -103.70695 35154 ft 554 kts 65°
2026-05-06 21:23 36.95563 -103.61932 35165 ft 554 kts 65°
2026-05-06 21:23 36.98744 -103.53163 35166 ft 553 kts 65°
2026-05-06 21:24 37.01906 -103.44397 35166 ft 552 kts 65°
2026-05-06 21:24 37.05041 -103.35698 35171 ft 552 kts 65°
2026-05-06 21:25 37.08189 -103.26949 35173 ft 551 kts 65°
2026-05-06 21:25 37.11327 -103.18208 35177 ft 550 kts 65°
2026-05-06 21:26 37.14457 -103.09457 35178 ft 550 kts 65°
2026-05-06 21:26 37.17573 -103.00694 35181 ft 550 kts 66°
2026-05-06 21:27 37.20663 -102.91988 35179 ft 550 kts 66°
2026-05-06 21:27 37.23768 -102.83218 35178 ft 550 kts 66°
2026-05-06 21:28 37.26864 -102.74447 35180 ft 549 kts 66°
2026-05-06 21:28 37.29961 -102.65682 35183 ft 549 kts 66°
2026-05-06 21:29 37.33024 -102.56977 35185 ft 548 kts 66°
2026-05-06 21:29 37.36084 -102.48223 35188 ft 547 kts 66°
2026-05-06 21:30 37.39126 -102.39481 35190 ft 545 kts 66°
2026-05-06 21:30 37.42165 -102.30754 35191 ft 544 kts 66°
2026-05-06 21:31 37.45173 -102.22103 35200 ft 543 kts 66°
2026-05-06 21:31 37.48190 -102.13402 35208 ft 541 kts 66°
2026-05-06 21:32 37.51178 -102.04724 35212 ft 540 kts 67°
2026-05-06 21:32 37.55637 -101.91724 35206 ft 538 kts 67°
2026-05-06 21:33 37.58593 -101.83123 35201 ft 538 kts 67°
2026-05-06 21:33 37.61556 -101.74465 35205 ft 537 kts 67°
2026-05-06 21:34 37.64510 -101.65813 35200 ft 537 kts 67°
2026-05-06 21:34 37.67449 -101.57138 35194 ft 538 kts 67°
2026-05-06 21:35 37.70355 -101.48504 35188 ft 539 kts 67°
2026-05-06 21:35 37.73296 -101.39786 35183 ft 540 kts 67°
2026-05-06 21:36 37.76248 -101.31043 35180 ft 542 kts 67°
2026-05-06 21:36 37.79198 -101.22273 35180 ft 543 kts 67°
2026-05-06 21:37 37.82121 -101.13520 35180 ft 545 kts 67°
2026-05-06 21:37 37.85075 -101.04667 35179 ft 547 kts 67°
2026-05-06 21:38 37.88032 -100.95774 35180 ft 549 kts 68°
2026-05-06 21:38 37.90989 -100.86843 35181 ft 551 kts 67°
2026-05-06 21:39 37.93934 -100.77948 35174 ft 552 kts 68°
2026-05-06 21:39 37.96900 -100.68958 35169 ft 554 kts 68°
2026-05-06 21:40 37.99865 -100.59929 35171 ft 555 kts 68°
2026-05-06 21:40 38.02819 -100.50880 35198 ft 556 kts 68°
2026-05-06 21:41 38.05754 -100.41892 35208 ft 555 kts 68°
2026-05-06 21:41 38.08703 -100.32859 35212 ft 554 kts 68°
2026-05-06 21:42 38.11635 -100.23823 35195 ft 554 kts 68°
2026-05-06 21:42 38.14564 -100.14765 35184 ft 555 kts 68°
2026-05-06 21:43 38.17473 -100.05738 35189 ft 556 kts 68°
2026-05-06 21:43 38.20393 -99.96638 35192 ft 556 kts 68°
2026-05-06 21:44 38.23312 -99.87526 35185 ft 557 kts 68°
2026-05-06 21:44 38.26222 -99.78380 35193 ft 558 kts 68°
2026-05-06 21:45 38.29111 -99.69284 35199 ft 558 kts 68°
2026-05-06 21:45 38.32027 -99.60128 35196 ft 558 kts 68°
2026-05-06 21:46 38.34935 -99.50955 35206 ft 559 kts 68°
2026-05-06 21:46 38.37827 -99.41762 35202 ft 558 kts 68°
2026-05-06 21:47 38.40682 -99.32629 35195 ft 558 kts 69°
2026-05-06 21:47 38.43560 -99.23426 35189 ft 559 kts 68°
2026-05-06 21:48 38.46445 -99.14223 35188 ft 559 kts 68°
2026-05-06 21:48 38.49324 -99.04991 35185 ft 560 kts 69°
2026-05-06 21:49 38.52165 -98.95803 35185 ft 561 kts 69°
2026-05-06 21:49 38.55017 -98.86525 35181 ft 562 kts 69°
2026-05-06 21:50 38.57877 -98.77224 35172 ft 563 kts 69°
2026-05-06 21:50 38.60741 -98.67906 35166 ft 564 kts 69°
2026-05-06 21:51 38.63609 -98.58549 35163 ft 566 kts 69°
2026-05-06 21:51 38.66456 -98.49229 35164 ft 567 kts 69°
2026-05-06 21:52 38.69321 -98.39817 35169 ft 568 kts 69°
2026-05-06 21:52 38.72176 -98.30363 35178 ft 570 kts 70°
2026-05-06 21:53 38.75027 -98.20889 35189 ft 571 kts 70°
2026-05-06 21:53 38.77854 -98.11460 35202 ft 571 kts 70°
2026-05-06 21:54 38.80696 -98.01967 35209 ft 570 kts 70°
2026-05-06 21:54 38.83543 -97.92465 35190 ft 571 kts 70°
2026-05-06 21:55 38.86372 -97.82944 35188 ft 572 kts 70°
2026-05-06 21:55 38.89182 -97.73470 35193 ft 572 kts 70°
2026-05-06 21:56 38.92001 -97.63915 35196 ft 572 kts 70°
2026-05-06 21:56 38.94703 -97.54327 35200 ft 570 kts 72°
2026-05-06 21:57 38.97224 -97.44671 35195 ft 569 kts 73°
2026-05-06 21:57 38.99681 -97.35079 35190 ft 568 kts 73°
2026-05-06 21:58 39.02202 -97.25447 35186 ft 568 kts 72°
2026-05-06 21:58 39.04745 -97.15825 35179 ft 568 kts 72°
2026-05-06 21:59 39.07283 -97.06191 35175 ft 568 kts 72°
2026-05-06 21:59 39.09773 -96.96618 35175 ft 568 kts 73°
2026-05-06 22:00 39.12263 -96.86970 35171 ft 568 kts 73°
2026-05-06 22:00 39.14747 -96.77312 35166 ft 567 kts 72°
2026-05-06 22:01 39.17216 -96.67732 35169 ft 567 kts 72°
2026-05-06 22:01 39.19695 -96.58087 35171 ft 567 kts 72°
2026-05-06 22:02 39.22160 -96.48421 35176 ft 567 kts 73°
2026-05-06 22:02 39.24613 -96.38756 35182 ft 566 kts 73°
2026-05-06 22:03 39.27057 -96.29102 35181 ft 566 kts 73°
2026-05-06 22:03 39.29473 -96.19502 35175 ft 566 kts 73°
2026-05-06 22:04 39.31895 -96.09843 35173 ft 565 kts 73°
2026-05-06 22:04 39.34317 -96.00203 35172 ft 564 kts 73°
2026-05-06 22:05 39.36316 -95.92194 35163 ft 564 kts 73°
2026-05-06 22:05 39.39092 -95.80974 35159 ft 564 kts 73°
2026-05-06 22:06 39.41481 -95.71306 35158 ft 565 kts 73°
2026-05-06 22:06 39.43464 -95.63260 35157 ft 565 kts 73°
2026-05-06 22:07 39.45846 -95.53561 35155 ft 566 kts 73°
2026-05-06 22:07 39.48605 -95.42280 35153 ft 566 kts 73°
2026-05-06 22:08 39.50588 -95.34130 35151 ft 567 kts 73°
2026-05-06 22:08 39.52933 -95.24441 35142 ft 568 kts 73°
2026-05-06 22:09 39.55296 -95.14663 35137 ft 569 kts 73°
2026-05-06 22:09 39.58030 -95.03264 35132 ft 571 kts 74°
2026-05-06 22:10 39.59984 -94.95079 35129 ft 572 kts 74°
2026-05-06 22:10 39.62341 -94.85198 35133 ft 574 kts 74°
2026-05-06 22:11 39.64701 -94.75291 35127 ft 575 kts 74°
2026-05-06 22:11 39.67043 -94.65352 35121 ft 577 kts 74°
2026-05-06 22:12 39.69389 -94.55383 35127 ft 578 kts 74°
2026-05-06 22:12 39.71713 -94.45456 35132 ft 579 kts 74°
2026-05-06 22:13 39.74049 -94.35430 35148 ft 580 kts 74°
2026-05-06 22:13 39.76380 -94.25394 35168 ft 580 kts 74°
2026-05-06 22:14 39.78708 -94.15342 35175 ft 581 kts 75°
2026-05-06 22:14 39.81009 -94.05345 35175 ft 581 kts 75°
2026-05-06 22:15 39.83322 -93.95274 35172 ft 581 kts 75°
2026-05-06 22:15 39.85627 -93.85191 35167 ft 581 kts 75°
2026-05-06 22:16 39.87918 -93.75104 35160 ft 581 kts 75°
2026-05-06 22:16 39.90181 -93.65072 35148 ft 581 kts 75°
2026-05-06 22:17 39.92461 -93.54970 35129 ft 581 kts 75°
2026-05-06 22:17 39.94727 -93.44847 35124 ft 582 kts 75°
2026-05-06 22:18 39.96982 -93.34705 35127 ft 583 kts 75°
2026-05-06 22:18 39.99224 -93.24609 35134 ft 584 kts 75°
2026-05-06 22:19 40.01483 -93.14422 35147 ft 585 kts 75°
2026-05-06 22:19 40.03727 -93.04250 35152 ft 583 kts 75°
2026-05-06 22:20 40.05945 -92.94104 35142 ft 580 kts 75°
2026-05-06 22:20 40.07933 -92.84967 35134 ft 580 kts 75°
2026-05-06 22:21 40.10128 -92.74837 35134 ft 580 kts 76°
2026-05-06 22:21 40.12318 -92.64689 35125 ft 581 kts 76°
2026-05-06 22:22 40.15054 -92.54773 35114 ft 581 kts 64°
2026-05-06 22:22 40.18457 -92.45252 35103 ft 582 kts 64°
2026-05-06 22:23 40.21871 -92.35626 35096 ft 584 kts 64°
2026-05-06 22:23 40.25277 -92.25964 35097 ft 586 kts 64°
2026-05-06 22:24 40.28681 -92.16264 35106 ft 587 kts 64°
2026-05-06 22:24 40.32062 -92.06595 35111 ft 588 kts 64°
2026-05-06 22:25 40.35468 -91.96843 35114 ft 589 kts 64°
2026-05-06 22:25 40.38873 -91.87080 35116 ft 589 kts 64°
2026-05-06 22:26 40.42261 -91.77300 35115 ft 589 kts 64°
2026-05-06 22:26 40.45615 -91.67580 35122 ft 588 kts 64°
2026-05-06 22:27 40.48980 -91.57796 35127 ft 587 kts 64°
2026-05-06 22:27 40.52333 -91.48019 35131 ft 586 kts 64°
2026-05-06 22:28 40.55667 -91.38260 35124 ft 584 kts 65°
2026-05-06 22:28 40.58967 -91.28587 35126 ft 583 kts 64°
2026-05-06 22:29 40.62277 -91.18852 35121 ft 582 kts 64°
2026-05-06 22:29 40.65567 -91.09127 35120 ft 581 kts 65°
2026-05-06 22:30 40.68842 -90.99409 35120 ft 580 kts 65°
2026-05-06 22:30 40.72078 -90.89766 35129 ft 579 kts 65°
2026-05-06 22:31 40.75332 -90.80047 35121 ft 579 kts 64°
2026-05-06 22:31 40.78452 -90.70719 35123 ft 578 kts 64°
2026-05-06 22:32 40.81632 -90.61167 35125 ft 578 kts 65°
2026-05-06 22:32 40.84829 -90.51507 35116 ft 578 kts 65°
2026-05-06 22:33 40.88036 -90.41785 35115 ft 577 kts 65°
2026-05-06 22:33 40.91234 -90.32050 35116 ft 577 kts 65°
2026-05-06 22:34 40.94424 -90.22324 35119 ft 576 kts 65°
2026-05-06 22:34 40.97586 -90.12662 35113 ft 576 kts 65°
2026-05-06 22:35 41.00760 -90.02942 35107 ft 575 kts 65°
2026-05-06 22:35 41.03910 -89.93223 35098 ft 574 kts 65°
2026-05-06 22:36 41.07048 -89.83498 35096 ft 574 kts 65°
2026-05-06 22:36 41.10170 -89.73832 35092 ft 574 kts 65°
2026-05-06 22:37 41.13299 -89.64101 35085 ft 573 kts 65°
2026-05-06 22:37 41.16411 -89.54371 35080 ft 572 kts 65°
2026-05-06 22:38 41.19497 -89.44634 35074 ft 572 kts 65°
2026-05-06 22:38 41.22567 -89.34984 35079 ft 571 kts 65°
2026-05-06 22:39 41.25650 -89.25250 35078 ft 571 kts 65°
2026-05-06 22:39 41.28721 -89.15519 35079 ft 571 kts 65°
2026-05-06 22:40 41.31787 -89.05774 35088 ft 571 kts 65°
2026-05-06 22:40 41.34655 -88.96613 35086 ft 571 kts 65°
2026-05-06 22:41 41.39222 -88.81965 35081 ft 571 kts 66°
2026-05-06 22:42 41.42260 -88.72178 35068 ft 572 kts 66°
2026-05-06 22:42 41.45284 -88.62375 35065 ft 572 kts 66°
2026-05-06 22:43 41.48284 -88.52648 35055 ft 571 kts 66°
2026-05-06 22:43 41.51294 -88.42849 35052 ft 571 kts 66°
2026-05-06 22:44 41.54184 -88.32988 35048 ft 571 kts 72°
2026-05-06 22:44 41.55751 -88.22636 35052 ft 569 kts 83°
2026-05-06 22:45 41.56975 -88.12270 35059 ft 569 kts 82°
2026-05-06 22:45 41.58215 -88.01838 35056 ft 568 kts 82°
2026-05-06 22:46 41.59439 -87.91413 35049 ft 568 kts 83°
2026-05-06 22:46 41.60647 -87.80984 35046 ft 568 kts 83°
2026-05-06 22:47 41.61837 -87.70616 35041 ft 568 kts 83°
2026-05-06 22:47 41.63032 -87.60183 35038 ft 568 kts 83°
2026-05-06 22:48 41.64221 -87.49734 35038 ft 569 kts 83°
2026-05-06 22:48 41.65398 -87.39268 35025 ft 569 kts 83°
2026-05-06 22:49 41.66559 -87.28786 35014 ft 570 kts 83°
2026-05-06 22:49 41.67702 -87.18356 35006 ft 571 kts 83°
2026-05-06 22:50 41.68856 -87.07827 35010 ft 572 kts 83°
2026-05-06 22:50 41.70000 -86.97281 35009 ft 573 kts 83°
2026-05-06 22:51 41.71134 -86.86709 35018 ft 574 kts 83°
2026-05-06 22:51 41.72255 -86.76190 35023 ft 575 kts 83°
2026-05-06 22:52 41.73376 -86.65584 35028 ft 576 kts 83°
2026-05-06 22:52 41.74493 -86.54956 35029 ft 576 kts 83°
2026-05-06 22:53 41.75600 -86.44319 35029 ft 577 kts 83°
2026-05-06 22:53 41.76690 -86.33686 35030 ft 576 kts 84°
2026-05-06 22:54 41.77794 -86.23122 35031 ft 576 kts 83°
2026-05-06 22:54 41.78969 -86.12511 35030 ft 576 kts 83°
2026-05-06 22:55 41.80147 -86.01888 35025 ft 575 kts 83°
2026-05-06 22:55 41.81287 -85.91280 35021 ft 575 kts 83°
2026-05-06 22:56 41.82408 -85.80740 35019 ft 575 kts 83°
2026-05-06 22:56 41.83530 -85.70114 35016 ft 575 kts 83°
2026-05-06 22:57 41.84636 -85.59488 35020 ft 576 kts 83°
2026-05-06 22:57 41.85733 -85.48850 35012 ft 576 kts 83°
2026-05-06 22:58 41.86819 -85.38281 35010 ft 576 kts 83°
2026-05-06 22:58 41.87905 -85.27625 35011 ft 577 kts 83°
2026-05-06 22:59 41.88976 -85.16947 35001 ft 578 kts 84°
2026-05-06 22:59 41.90039 -85.06254 35002 ft 579 kts 83°
2026-05-06 23:00 41.91090 -84.95607 35003 ft 579 kts 83°
2026-05-06 23:00 41.92138 -84.84876 35011 ft 580 kts 84°
2026-05-06 23:01 41.93175 -84.74141 35019 ft 580 kts 84°
2026-05-06 23:01 41.94214 -84.63385 35017 ft 580 kts 83°
2026-05-06 23:02 41.95242 -84.52638 35019 ft 581 kts 83°
2026-05-06 23:02 41.96250 -84.41947 35014 ft 581 kts 84°
2026-05-06 23:03 41.97248 -84.31182 35019 ft 581 kts 84°
2026-05-06 23:03 41.98228 -84.20421 35022 ft 580 kts 84°
2026-05-06 23:04 41.99208 -84.09663 35022 ft 580 kts 84°
2026-05-06 23:04 42.00169 -83.98980 35020 ft 579 kts 84°
2026-05-06 23:05 42.01129 -83.88228 35015 ft 579 kts 84°
2026-05-06 23:05 42.02076 -83.77475 35016 ft 579 kts 84°
2026-05-06 23:06 42.03024 -83.66718 35013 ft 579 kts 84°
2026-05-06 23:06 42.03947 -83.55978 35017 ft 578 kts 85°
2026-05-06 23:07 42.04846 -83.45305 35019 ft 577 kts 85°
2026-05-06 23:07 42.05536 -83.34561 35019 ft 575 kts 88°
2026-05-06 23:08 42.05977 -83.23841 35016 ft 574 kts 89°
2026-05-06 23:08 42.06409 -83.13133 35017 ft 572 kts 89°
2026-05-06 23:09 42.06921 -83.02522 35021 ft 571 kts 88°
2026-05-06 23:09 42.07459 -82.91874 35011 ft 570 kts 88°
2026-05-06 23:10 42.07960 -82.81223 35014 ft 570 kts 89°
2026-05-06 23:10 42.08433 -82.70569 35006 ft 570 kts 89°
2026-05-06 23:11 42.08893 -82.59983 35000 ft 570 kts 89°
2026-05-06 23:11 42.09352 -82.49318 34988 ft 571 kts 88°
2026-05-06 23:12 42.09815 -82.38631 34985 ft 573 kts 89°
2026-05-06 23:12 42.10276 -82.27907 34987 ft 574 kts 89°
2026-05-06 23:13 42.10712 -82.17162 34985 ft 575 kts 89°
2026-05-06 23:13 42.11130 -82.06464 34989 ft 577 kts 89°
2026-05-06 23:14 42.11543 -81.95678 34996 ft 577 kts 89°
2026-05-06 23:14 42.11952 -81.84869 35003 ft 578 kts 89°
2026-05-06 23:15 42.12345 -81.74114 35010 ft 578 kts 89°
2026-05-06 23:15 42.12730 -81.63301 35021 ft 578 kts 89°
2026-05-06 23:16 42.13117 -81.52507 35027 ft 577 kts 89°
2026-05-06 23:16 42.13487 -81.41724 35032 ft 575 kts 89°
2026-05-06 23:17 42.13835 -81.30970 35038 ft 573 kts 89°
2026-05-06 23:17 42.14177 -81.20257 35031 ft 571 kts 90°
2026-05-06 23:18 42.14504 -81.09653 35033 ft 569 kts 90°
2026-05-06 23:18 42.14819 -80.99009 35028 ft 568 kts 90°
2026-05-06 23:19 42.15144 -80.88392 35026 ft 566 kts 90°
2026-05-06 23:19 42.15450 -80.77792 35024 ft 566 kts 90°
2026-05-06 23:20 42.15731 -80.67278 35019 ft 565 kts 90°
2026-05-06 23:20 42.16015 -80.56697 35013 ft 566 kts 90°
2026-05-06 23:21 42.16282 -80.46094 35012 ft 566 kts 90°
2026-05-06 23:21 42.16542 -80.35485 35012 ft 567 kts 90°
2026-05-06 23:22 42.16798 -80.24923 35006 ft 568 kts 90°
2026-05-06 23:22 42.17048 -80.14277 35010 ft 568 kts 90°
2026-05-06 23:23 42.17283 -80.03615 35008 ft 569 kts 90°
2026-05-06 23:23 42.17500 -79.92939 35010 ft 570 kts 90°
2026-05-06 23:24 42.17708 -79.82258 35008 ft 570 kts 90°
2026-05-06 23:24 42.17914 -79.71648 35003 ft 570 kts 90°
2026-05-06 23:25 42.18114 -79.60957 35004 ft 570 kts 90°
2026-05-06 23:25 42.18295 -79.50288 35004 ft 568 kts 91°
2026-05-06 23:26 42.18467 -79.39648 35002 ft 567 kts 91°
2026-05-06 23:26 42.18632 -79.29112 34993 ft 565 kts 91°
2026-05-06 23:27 42.18770 -79.19353 34994 ft 563 kts 91°
2026-05-06 23:27 42.19285 -79.08835 34989 ft 563 kts 79°
2026-05-06 23:28 42.20650 -78.98452 34995 ft 561 kts 80°
2026-05-06 23:28 42.21977 -78.88092 34987 ft 560 kts 81°
2026-05-06 23:29 42.23267 -78.77809 34977 ft 559 kts 81°
2026-05-06 23:29 42.24557 -78.67476 34974 ft 559 kts 81°
2026-05-06 23:30 42.25843 -78.57137 34966 ft 559 kts 80°
2026-05-06 23:30 42.27132 -78.46797 34954 ft 558 kts 81°
2026-05-06 23:31 42.28398 -78.36450 34951 ft 559 kts 81°
2026-05-06 23:31 42.29646 -78.26166 34946 ft 559 kts 81°
2026-05-06 23:32 42.30901 -78.15803 34943 ft 559 kts 81°
2026-05-06 23:32 42.32155 -78.05416 34943 ft 560 kts 81°
2026-05-06 23:33 42.33398 -77.95020 34949 ft 561 kts 81°
2026-05-06 23:33 42.34625 -77.84607 34951 ft 561 kts 81°
2026-05-06 23:34 42.35832 -77.74265 34955 ft 560 kts 81°
2026-05-06 23:34 42.37038 -77.63863 34959 ft 560 kts 81°
2026-05-06 23:35 42.38236 -77.53477 34961 ft 558 kts 82°
2026-05-06 23:35 42.39422 -77.43115 34960 ft 557 kts 82°
2026-05-06 23:36 42.40598 -77.32774 34955 ft 555 kts 82°
2026-05-06 23:36 42.41758 -77.22450 34955 ft 554 kts 82°
2026-05-06 23:37 42.42892 -77.12235 34957 ft 552 kts 82°
2026-05-06 23:37 42.44026 -77.01978 34954 ft 550 kts 82°
2026-05-06 23:38 42.45147 -76.91738 34952 ft 549 kts 82°
2026-05-06 23:38 42.46246 -76.81513 34952 ft 548 kts 83°
2026-05-06 23:39 42.47335 -76.71365 34952 ft 547 kts 82°
2026-05-06 23:39 42.48426 -76.61164 34946 ft 546 kts 82°
2026-05-06 23:40 42.49516 -76.50988 34940 ft 546 kts 82°
2026-05-06 23:40 42.50602 -76.40793 34941 ft 547 kts 83°
2026-05-06 23:41 42.51663 -76.30581 34943 ft 547 kts 83°
2026-05-06 23:41 42.52708 -76.20369 34938 ft 547 kts 83°
2026-05-06 23:42 42.53739 -76.10196 34941 ft 549 kts 83°
2026-05-06 23:42 42.54777 -75.99944 34947 ft 549 kts 83°
2026-05-06 23:43 42.55812 -75.89686 34952 ft 549 kts 83°
2026-05-06 23:43 42.56833 -75.79428 34949 ft 548 kts 83°
2026-05-06 23:44 42.57835 -75.69168 34941 ft 548 kts 83°
2026-05-06 23:44 42.58830 -75.59003 34945 ft 546 kts 83°
2026-05-06 23:45 42.59824 -75.48791 34941 ft 545 kts 83°
2026-05-06 23:45 42.60795 -75.38597 34939 ft 544 kts 84°
2026-05-06 23:46 42.61767 -75.28434 34940 ft 542 kts 84°
2026-05-06 23:46 42.62722 -75.18286 34947 ft 541 kts 84°
2026-05-06 23:47 42.63652 -75.08223 34937 ft 540 kts 83°
2026-05-06 23:47 42.64586 -74.98128 34944 ft 538 kts 84°
2026-05-06 23:48 42.65512 -74.88057 34927 ft 537 kts 84°
2026-05-06 23:48 42.66426 -74.77990 34924 ft 537 kts 84°
2026-05-06 23:49 42.67322 -74.67933 34912 ft 536 kts 84°
2026-05-06 23:49 42.68211 -74.57879 34905 ft 536 kts 84°
2026-05-06 23:50 42.69088 -74.47888 34896 ft 536 kts 84°
2026-05-06 23:50 42.70403 -74.32785 34882 ft 537 kts 84°
2026-05-06 23:51 42.71272 -74.22705 34880 ft 537 kts 83°
2026-05-06 23:51 42.72157 -74.12620 34857 ft 537 kts 81°
2026-05-06 23:52 42.72563 -74.07611 34580 ft 534 kts 83°
2026-05-06 23:52 42.73036 -74.02712 34502 ft 523 kts 91°
2026-05-06 23:52 42.72424 -73.97934 34422 ft 510 kts 120°
2026-05-06 23:52 42.70926 -73.93611 34485 ft 508 kts 121°
2026-05-06 23:53 42.69888 -73.88958 34432 ft 523 kts 99°
2026-05-06 23:53 42.69966 -73.83999 34446 ft 530 kts 78°
2026-05-06 23:53 42.72215 -73.74502 34118 ft 525 kts 69°
2026-05-06 23:54 42.73411 -73.69831 33867 ft 521 kts 70°
2026-05-06 23:54 42.74319 -73.65071 33612 ft 519 kts 82°
2026-05-06 23:54 42.74577 -73.60212 33362 ft 513 kts 93°
2026-05-06 23:54 42.74559 -73.55366 33103 ft 509 kts 93°
2026-05-06 23:55 42.74523 -73.50574 32616 ft 506 kts 94°
2026-05-06 23:55 42.74476 -73.45860 32156 ft 504 kts 94°
2026-05-06 23:55 42.74422 -73.41110 31689 ft 501 kts 94°
2026-05-06 23:55 42.74366 -73.36400 31232 ft 496 kts 94°
2026-05-06 23:56 42.74310 -73.31719 30775 ft 493 kts 94°
2026-05-06 23:56 42.74259 -73.27072 30335 ft 489 kts 94°
2026-05-06 23:56 42.74206 -73.22464 29888 ft 485 kts 94°
2026-05-06 23:56 42.74152 -73.17894 29457 ft 482 kts 94°
2026-05-06 23:57 42.74099 -73.13351 29027 ft 478 kts 95°
2026-05-06 23:57 42.73800 -73.08898 28612 ft 469 kts 103°
2026-05-06 23:57 42.73296 -73.04539 28209 ft 465 kts 104°
2026-05-06 23:57 42.72800 -73.00277 27808 ft 461 kts 103°
2026-05-06 23:58 42.72306 -72.95993 27407 ft 457 kts 103°
2026-05-06 23:58 42.71816 -72.91741 27007 ft 454 kts 103°
2026-05-06 23:58 42.71325 -72.87515 26621 ft 450 kts 104°
2026-05-06 23:58 42.70839 -72.83330 26228 ft 446 kts 104°
2026-05-06 23:59 42.70362 -72.79223 25817 ft 430 kts 104°
2026-05-06 23:59 42.69902 -72.75262 25448 ft 423 kts 104°
2026-05-06 23:59 42.69436 -72.71324 25055 ft 420 kts 104°
2026-05-06 23:59 42.68968 -72.67418 24651 ft 418 kts 104°
2026-05-07 00:00 42.68502 -72.63532 24243 ft 415 kts 104°
2026-05-07 00:00 42.68037 -72.59670 23843 ft 412 kts 104°
2026-05-07 00:00 42.67581 -72.55892 23427 ft 409 kts 105°
2026-05-07 00:00 42.67268 -72.53321 23135 ft 408 kts 105°
2026-05-07 00:01 42.66654 -72.48312 22613 ft 404 kts 105°
2026-05-07 00:01 42.66194 -72.44567 22188 ft 402 kts 105°
2026-05-07 00:01 42.65734 -72.40833 21778 ft 399 kts 105°
2026-05-07 00:01 42.65272 -72.37130 21367 ft 396 kts 105°
2026-05-07 00:02 42.64814 -72.33449 20966 ft 393 kts 105°
2026-05-07 00:02 42.64365 -72.29802 20541 ft 392 kts 104°
2026-05-07 00:02 42.63935 -72.26145 20080 ft 391 kts 104°
2026-05-07 00:02 42.63520 -72.22507 19637 ft 390 kts 104°
2026-05-07 00:03 42.63108 -72.18876 19185 ft 388 kts 104°
2026-05-07 00:03 42.62692 -72.15260 18738 ft 387 kts 104°
2026-05-07 00:03 42.62280 -72.11705 18301 ft 386 kts 104°
2026-05-07 00:03 42.61861 -72.08119 17856 ft 384 kts 104°
2026-05-07 00:04 42.61443 -72.04556 17468 ft 381 kts 104°
2026-05-07 00:04 42.61025 -72.01021 17161 ft 378 kts 104°
2026-05-07 00:04 42.60597 -71.97509 16739 ft 377 kts 105°
2026-05-07 00:04 42.60162 -71.94016 16307 ft 375 kts 105°
2026-05-07 00:05 42.59726 -71.90536 15876 ft 373 kts 105°
2026-05-07 00:05 42.59290 -71.87077 15447 ft 372 kts 106°
2026-05-07 00:05 42.58855 -71.83633 15033 ft 370 kts 106°
2026-05-07 00:05 42.58406 -71.80216 14650 ft 366 kts 107°
2026-05-07 00:06 42.57904 -71.76836 14239 ft 363 kts 109°
2026-05-07 00:06 42.57370 -71.73504 13779 ft 362 kts 109°
2026-05-07 00:06 42.56832 -71.70228 13422 ft 358 kts 110°
2026-05-07 00:06 42.56292 -71.66946 12930 ft 352 kts 110°
2026-05-07 00:07 42.55772 -71.63737 12541 ft 348 kts 110°
2026-05-07 00:07 42.55248 -71.60528 12148 ft 348 kts 110°
2026-05-07 00:07 42.54712 -71.57354 11761 ft 344 kts 111°
2026-05-07 00:07 42.54105 -71.54231 11461 ft 342 kts 113°
2026-05-07 00:08 42.53465 -71.51180 10963 ft 331 kts 116°
2026-05-07 00:08 42.52840 -71.48242 10424 ft 316 kts 115°
2026-05-07 00:08 42.52237 -71.45414 10185 ft 316 kts 116°
2026-05-07 00:08 42.51620 -71.42570 9932 ft 313 kts 115°
2026-05-07 00:09 42.51011 -71.39747 9809 ft 311 kts 115°
2026-05-07 00:09 42.50413 -71.36935 9680 ft 310 kts 115°
2026-05-07 00:09 42.49827 -71.34125 9534 ft 310 kts 114°
2026-05-07 00:09 42.49254 -71.31302 9137 ft 311 kts 114°
2026-05-07 00:10 42.48703 -71.28508 8797 ft 298 kts 114°
2026-05-07 00:10 42.48209 -71.25897 8626 ft 274 kts 114°
2026-05-07 00:10 42.47814 -71.23793 8412 ft 267 kts 115°
2026-05-07 00:10 42.47340 -71.21379 8045 ft 263 kts 116°
2026-05-07 00:11 42.46864 -71.19020 7651 ft 262 kts 114°
2026-05-07 00:11 42.46643 -71.16533 7204 ft 271 kts 98°
2026-05-07 00:11 42.46903 -71.13952 6782 ft 282 kts 79°
2026-05-07 00:11 42.47645 -71.11534 6602 ft 275 kts 66°
2026-05-07 00:12 42.48493 -71.09261 6327 ft 266 kts 64°
2026-05-07 00:12 42.49557 -71.07230 6041 ft 265 kts 46°
2026-05-07 00:12 42.50985 -71.05647 5967 ft 266 kts 27°
2026-05-07 00:12 42.52662 -71.04612 5994 ft 266 kts 16°
2026-05-07 00:13 42.54406 -71.03752 5943 ft 269 kts 16°
2026-05-07 00:13 42.56144 -71.02889 5879 ft 265 kts 16°
2026-05-07 00:13 42.57853 -71.02044 5571 ft 263 kts 15°
2026-05-07 00:13 42.59464 -71.00840 5180 ft 266 kts 42°
2026-05-07 00:14 42.60447 -70.98827 4837 ft 249 kts 77°
2026-05-07 00:14 42.60582 -70.96585 4424 ft 233 kts 105°
2026-05-07 00:14 42.60381 -70.94426 3948 ft 229 kts 106°
2026-05-07 00:14 42.60068 -70.92363 3459 ft 214 kts 126°
2026-05-07 00:15 42.59519 -70.91344 3149 ft 194 kts 150°
2026-05-07 00:15 42.58074 -70.90529 3042 ft 151 kts 174°
2026-05-07 00:15 42.57091 -70.90304 3023 ft 136 kts 195°
2026-05-07 00:15 42.56548 -70.90684 3042 ft 136 kts 217°
2026-05-07 00:16 42.55414 -70.91362 3014 ft 137 kts 195°
2026-05-07 00:16 42.54525 -70.91752 3018 ft 131 kts 202°
2026-05-07 00:16 42.53674 -70.92166 3008 ft 125 kts 202°
2026-05-07 00:16 42.52882 -70.92551 2998 ft 118 kts 202°
2026-05-07 00:17 42.52115 -70.92925 2946 ft 115 kts 202°
2026-05-07 00:17 42.51618 -70.93167 2889 ft 116 kts 202°
2026-05-07 00:17 42.50854 -70.93540 2780 ft 118 kts 201°
2026-05-07 00:17 42.50085 -70.93914 2645 ft 118 kts 200°
2026-05-07 00:18 42.49288 -70.94301 2494 ft 122 kts 200°
2026-05-07 00:18 42.48482 -70.94692 2337 ft 124 kts 200°
2026-05-07 00:18 42.47656 -70.95092 2165 ft 127 kts 199°
2026-05-07 00:18 42.46820 -70.95499 2002 ft 129 kts 199°
2026-05-07 00:19 42.45976 -70.95909 1827 ft 128 kts 201°
2026-05-07 00:19 42.45144 -70.96312 1654 ft 130 kts 200°
2026-05-07 00:19 42.44276 -70.96735 1481 ft 135 kts 201°
2026-05-07 00:19 42.43387 -70.97166 1299 ft 136 kts 201°
2026-05-07 00:20 42.42500 -70.97597 1117 ft 135 kts 201°
2026-05-07 00:20 42.41617 -70.98026 942 ft 135 kts 201°
2026-05-07 00:20 42.40737 -70.98452 758 ft 134 kts 200°
2026-05-07 00:20 42.39856 -70.98878 584 ft 135 kts 200°
2026-05-07 00:21 42.38969 -70.99308 411 ft 135 kts 202°
2026-05-07 00:21 42.38090 -70.99734 229 ft 134 kts 202°
2026-05-07 00:21 42.37213 -71.00159 45 ft 134 kts 201°
2026-05-07 00:21 42.36468 -71.00521 26 ft 80 kts 199°
2026-05-07 00:22 42.36175 -71.00658 26 ft 13 kts 198°
2026-05-07 00:22 42.36121 -71.00687 26 ft 8 kts 204°
2026-05-07 00:23 42.36067 -71.00721 27 ft 10 kts 208°
2026-05-07 00:23 42.36012 -71.00773 27 ft 10 kts 221°
2026-05-07 00:23 42.35949 -71.00866 26 ft 14 kts 229°
2026-05-07 00:23 42.35928 -71.00899 26 ft 8 kts 229°
2026-05-07 00:24 42.35885 -71.00966 26 ft 10 kts 229°
2026-05-07 00:24 42.35841 -71.01053 26 ft 12 kts 248°
2026-05-07 00:24 42.35837 -71.01167 26 ft 12 kts 276°
2026-05-07 00:24 42.35846 -71.01261 26 ft 4 kts 278°
2026-05-07 00:25 42.35847 -71.01265 26 ft 1 kts 278°
2026-05-07 00:26 42.35848 -71.01274 26 ft 3 kts 278°
2026-05-07 00:26 42.35852 -71.01316 26 ft 9 kts 278°
2026-05-07 00:26 42.35868 -71.01451 26 ft 15 kts 280°
2026-05-07 00:26 42.35880 -71.01531 26 ft 0 kts 281°
2026-05-07 00:27 42.35884 -71.01562 28 ft 8 kts 280°
2026-05-07 00:27 42.35895 -71.01642 26 ft 10 kts 280°
2026-05-07 00:28 42.35908 -71.01739 26 ft 12 kts 281°
2026-05-07 00:28 42.35929 -71.01838 26 ft 10 kts 293°
2026-05-07 00:28 42.35964 -71.01924 26 ft 11 kts 301°
2026-05-07 00:28 42.36005 -71.02014 30 ft 10 kts 301°
2026-05-07 00:29 42.36038 -71.02065 26 ft 5 kts 341°
2026-05-07 00:29 42.36069 -71.02057 29 ft 4 kts 19°
2026-05-07 00:30 42.36130 -71.02021 26 ft 1 kts 24°
2026-05-07 00:30 42.36133 -71.02019 26 ft 0 kts 24°